Time,TemperatureF,DewpointF,PressureIn,WindDirection,WindDirectionDegrees,WindSpeedMPH,WindSpeedGustMPH,Humidity,HourlyPrecipIn,Conditions,Clouds,dailyrainin,SoftwareType,DateUTC
2013-06-19 00:00:00,72.5,69.4,29.83,NW,323,0.0,0.0,90,0.00,,,0.00,WUHU216DAVISVP2,2013-06-19 04:00:00,
2013-06-19 00:01:00,72.8,69.7,29.83,NW,323,0.0,0.0,90,0.00,,,0.00,WUHU216DAVISVP2,2013-06-19 04:01:00,
2013-06-19 00:06:00,72.3,69.2,29.83,NW,323,0.0,0.0,90,0.00,,,0.00,WUHU216DAVISVP2,2013-06-19 04:06:00,
2013-06-19 00:11:00,72.3,69.2,29.83,NW,323,0.0,0.0,90,0.00,,,0.00,WUHU216DAVISVP2,2013-06-19 04:11:00,
2013-06-19 00:16:00,72.1,69.0,29.83,NW,323,0.0,0.0,90,0.00,,,0.00,WUHU216DAVISVP2,2013-06-19 04:16:00,
2013-06-19 00:21:00,72.5,69.4,29.83,NW,323,0.0,0.0,90,0.00,,,0.00,WUHU216DAVISVP2,2013-06-19 04:21:00,
2013-06-19 00:26:00,72.1,69.0,29.83,NW,323,0.0,0.0,90,0.00,,,0.00,WUHU216DAVISVP2,2013-06-19 04:26:00,
2013-06-19 00:31:00,72.3,69.2,29.83,NW,323,0.0,0.0,90,0.00,,,0.00,WUHU216DAVISVP2,2013-06-19 04:31:00,
2013-06-19 00:36:00,72.0,68.9,29.83,NW,323,0.0,0.0,90,0.00,,,0.00,WUHU216DAVISVP2,2013-06-19 04:36:00,
2013-06-19 00:43:00,72.1,69.0,29.83,NW,323,0.0,0.0,90,0.00,,,0.00,WUHU216DAVISVP2,2013-06-19 04:43:00,
2013-06-19 00:48:00,72.0,68.9,29.83,NW,323,0.0,0.0,90,0.00,,,0.00,WUHU216DAVISVP2,2013-06-19 04:48:00,
2013-06-19 00:53:00,72.0,68.9,29.83,NW,323,0.0,0.0,90,0.00,,,0.00,WUHU216DAVISVP2,2013-06-19 04:53:00,
2013-06-19 00:58:00,72.0,68.9,29.83,NW,323,0.0,0.0,90,0.00,,,0.00,WUHU216DAVISVP2,2013-06-19 04:58:00,
2013-06-19 01:03:00,72.0,68.9,29.83,NW,323,0.0,0.0,90,0.00,,,0.00,WUHU216DAVISVP2,2013-06-19 05:03:00,
2013-06-19 01:08:00,72.0,68.9,29.83,NW,323,0.0,0.0,90,0.00,,,0.00,WUHU216DAVISVP2,2013-06-19 05:08:00,
2013-06-19 01:13:00,72.0,68.9,29.83,NW,323,0.0,0.0,90,0.00,,,0.00,WUHU216DAVISVP2,2013-06-19 05:13:00,
2013-06-19 01:18:00,72.0,68.9,29.83,NW,323,0.0,0.0,90,0.00,,,0.00,WUHU216DAVISVP2,2013-06-19 05:18:00,
2013-06-19 01:23:00,71.8,68.7,29.83,NW,323,0.0,0.0,90,0.00,,,0.00,WUHU216DAVISVP2,2013-06-19 05:23:00,
2013-06-19 01:28:00,71.8,68.7,29.82,NW,323,0.0,0.0,90,0.00,,,0.00,WUHU216DAVISVP2,2013-06-19 05:28:00,
2013-06-19 01:33:00,71.8,68.7,29.82,NW,323,0.0,0.0,90,0.00,,,0.00,WUHU216DAVISVP2,2013-06-19 05:33:00,
2013-06-19 01:38:00,71.8,68.7,29.82,NW,323,0.0,0.0,90,0.00,,,0.00,WUHU216DAVISVP2,2013-06-19 05:38:00,
2013-06-19 01:43:00,71.8,68.7,29.83,NW,323,0.0,0.0,90,0.00,,,0.00,WUHU216DAVISVP2,2013-06-19 05:43:00,
2013-06-19 01:48:00,71.8,68.7,29.83,NW,323,0.0,0.0,90,0.00,,,0.00,WUHU216DAVISVP2,2013-06-19 05:48:00,
2013-06-19 01:53:00,71.6,68.5,29.83,NW,323,0.0,0.0,90,0.00,,,0.00,WUHU216DAVISVP2,2013-06-19 05:53:00,
2013-06-19 01:58:00,71.6,68.5,29.83,NW,323,0.0,0.0,90,0.00,,,0.00,WUHU216DAVISVP2,2013-06-19 05:58:00,
2013-06-19 02:03:00,71.6,68.5,29.83,NW,323,0.0,0.0,90,0.00,,,0.00,WUHU216DAVISVP2,2013-06-19 06:03:00,
2013-06-19 02:08:00,71.6,68.5,29.83,NW,323,0.0,0.0,90,0.00,,,0.00,WUHU216DAVISVP2,2013-06-19 06:08:00,
2013-06-19 02:13:00,71.6,68.5,29.84,NW,323,0.0,0.0,90,0.00,,,0.00,WUHU216DAVISVP2,2013-06-19 06:13:00,
2013-06-19 02:18:00,71.6,68.5,29.84,NW,323,0.0,0.0,90,0.00,,,0.00,WUHU216DAVISVP2,2013-06-19 06:18:00,
2013-06-19 02:23:00,71.5,68.4,29.84,NW,323,0.0,0.0,90,0.00,,,0.00,WUHU216DAVISVP2,2013-06-19 06:23:00,
2013-06-19 02:28:00,71.5,68.4,29.84,NW,323,0.0,0.0,90,0.00,,,0.00,WUHU216DAVISVP2,2013-06-19 06:28:00,
2013-06-19 02:33:00,71.5,68.4,29.84,NW,323,0.0,0.0,90,0.00,,,0.00,WUHU216DAVISVP2,2013-06-19 06:33:00,
2013-06-19 02:38:00,71.3,68.2,29.84,NW,323,0.0,0.0,90,0.00,,,0.00,WUHU216DAVISVP2,2013-06-19 06:38:00,
2013-06-19 02:43:00,71.3,68.2,29.83,NW,323,0.0,0.0,90,0.00,,,0.00,WUHU216DAVISVP2,2013-06-19 06:43:00,
2013-06-19 02:48:00,71.3,68.2,29.83,NW,323,0.0,0.0,90,0.00,,,0.00,WUHU216DAVISVP2,2013-06-19 06:48:00,
2013-06-19 02:53:00,71.3,68.2,29.83,NW,323,0.0,0.0,90,0.00,,,0.00,WUHU216DAVISVP2,2013-06-19 06:53:00,
2013-06-19 02:58:00,71.3,68.2,29.84,NW,323,0.0,0.0,90,0.00,,,0.00,WUHU216DAVISVP2,2013-06-19 06:58:00,
2013-06-19 03:03:00,71.1,68.0,29.84,NW,323,0.0,0.0,90,0.01,,,0.01,WUHU216DAVISVP2,2013-06-19 07:03:00,
2013-06-19 03:08:00,71.1,68.0,29.84,NW,323,0.0,0.0,90,0.01,,,0.01,WUHU216DAVISVP2,2013-06-19 07:08:00,
2013-06-19 03:13:00,70.9,67.8,29.84,NW,323,0.0,0.0,90,0.01,,,0.01,WUHU216DAVISVP2,2013-06-19 07:13:00,
2013-06-19 03:19:00,70.9,67.8,29.84,NW,323,0.0,0.0,90,0.01,,,0.01,WUHU216DAVISVP2,2013-06-19 07:19:00,
2013-06-19 03:24:00,70.8,67.7,29.84,NW,323,0.0,0.0,90,0.01,,,0.01,WUHU216DAVISVP2,2013-06-19 07:24:00,
2013-06-19 03:29:00,70.8,67.7,29.84,NW,323,0.0,0.0,90,0.01,,,0.01,WUHU216DAVISVP2,2013-06-19 07:29:00,
2013-06-19 03:33:00,70.6,67.5,29.84,NW,323,0.0,0.0,90,0.01,,,0.01,WUHU216DAVISVP2,2013-06-19 07:33:00,
2013-06-19 03:38:00,70.4,67.3,29.84,NW,323,0.0,0.0,90,0.01,,,0.01,WUHU216DAVISVP2,2013-06-19 07:38:00,
2013-06-19 03:43:00,70.4,67.3,29.84,NW,323,0.0,0.0,90,0.01,,,0.01,WUHU216DAVISVP2,2013-06-19 07:43:00,
2013-06-19 03:48:00,70.3,67.2,29.84,NW,323,0.0,0.0,90,0.01,,,0.01,WUHU216DAVISVP2,2013-06-19 07:48:00,
2013-06-19 03:53:00,70.3,67.2,29.84,NW,323,0.0,0.0,90,0.01,,,0.01,WUHU216DAVISVP2,2013-06-19 07:53:00,
2013-06-19 03:58:00,70.1,67.3,29.84,NW,323,0.0,0.0,91,0.01,,,0.01,WUHU216DAVISVP2,2013-06-19 07:58:00,
2013-06-19 04:03:00,70.1,67.0,29.84,NW,323,0.0,0.0,90,0.00,,,0.01,WUHU216DAVISVP2,2013-06-19 08:03:00,
2013-06-19 04:08:00,70.1,67.3,29.84,NW,323,0.0,0.0,91,0.00,,,0.01,WUHU216DAVISVP2,2013-06-19 08:08:00,
2013-06-19 04:13:00,70.1,67.3,29.84,NW,323,0.0,0.0,91,0.00,,,0.01,WUHU216DAVISVP2,2013-06-19 08:13:00,
2013-06-19 04:18:00,69.9,67.2,29.84,NW,323,0.0,0.0,91,0.00,,,0.01,WUHU216DAVISVP2,2013-06-19 08:18:00,
2013-06-19 04:23:00,69.9,67.2,29.84,NW,323,0.0,0.0,91,0.00,,,0.01,WUHU216DAVISVP2,2013-06-19 08:23:00,
2013-06-19 04:28:00,69.8,67.0,29.84,NW,323,0.0,0.0,91,0.00,,,0.01,WUHU216DAVISVP2,2013-06-19 08:28:00,
2013-06-19 04:33:00,69.8,67.0,29.84,NW,323,0.0,0.0,91,0.00,,,0.01,WUHU216DAVISVP2,2013-06-19 08:33:00,
2013-06-19 04:38:00,69.8,67.0,29.84,NW,323,0.0,0.0,91,0.00,,,0.01,WUHU216DAVISVP2,2013-06-19 08:38:00,
2013-06-19 04:43:00,69.6,66.8,29.84,NW,323,0.0,0.0,91,0.00,,,0.01,WUHU216DAVISVP2,2013-06-19 08:43:00,
2013-06-19 04:48:00,69.6,66.9,29.84,NW,323,0.0,0.0,91,0.00,,,0.01,WUHU216DAVISVP2,2013-06-19 08:48:00,
2013-06-19 04:53:00,69.4,66.7,29.84,NW,323,0.0,0.0,91,0.00,,,0.01,WUHU216DAVISVP2,2013-06-19 08:53:00,
2013-06-19 04:58:00,69.4,66.7,29.85,NW,323,0.0,0.0,91,0.00,,,0.01,WUHU216DAVISVP2,2013-06-19 08:58:00,
2013-06-19 05:03:00,69.6,66.8,29.85,NW,323,0.0,0.0,91,0.00,,,0.01,WUHU216DAVISVP2,2013-06-19 09:03:00,
2013-06-19 05:08:00,69.4,66.6,29.85,NW,323,0.0,0.0,91,0.00,,,0.01,WUHU216DAVISVP2,2013-06-19 09:08:00,
2013-06-19 05:13:00,69.4,66.6,29.86,NW,323,0.0,0.0,91,0.00,,,0.01,WUHU216DAVISVP2,2013-06-19 09:13:00,
2013-06-19 05:18:00,69.3,66.5,29.86,NW,323,0.0,0.0,91,0.00,,,0.01,WUHU216DAVISVP2,2013-06-19 09:18:00,
2013-06-19 05:23:00,69.1,66.3,29.86,NW,323,0.0,0.0,91,0.00,,,0.01,WUHU216DAVISVP2,2013-06-19 09:23:00,
2013-06-19 05:28:00,69.1,66.3,29.86,NW,323,0.0,0.0,91,0.00,,,0.01,WUHU216DAVISVP2,2013-06-19 09:28:00,
2013-06-19 05:33:00,68.9,66.1,29.86,NW,323,0.0,0.0,91,0.00,,,0.01,WUHU216DAVISVP2,2013-06-19 09:33:00,
2013-06-19 05:38:00,68.8,66.0,29.86,NW,323,0.0,0.0,91,0.00,,,0.01,WUHU216DAVISVP2,2013-06-19 09:38:00,
2013-06-19 05:43:00,68.8,66.0,29.86,NW,323,0.0,0.0,91,0.00,,,0.01,WUHU216DAVISVP2,2013-06-19 09:43:00,
2013-06-19 05:48:00,68.6,65.9,29.86,NW,323,0.0,0.0,91,0.00,,,0.01,WUHU216DAVISVP2,2013-06-19 09:48:00,
2013-06-19 05:53:00,68.6,65.8,29.86,NW,323,0.0,0.0,91,0.00,,,0.01,WUHU216DAVISVP2,2013-06-19 09:53:00,
2013-06-19 05:58:00,68.4,65.6,29.88,NW,323,0.0,0.0,91,0.00,,,0.01,WUHU216DAVISVP2,2013-06-19 09:58:00,
2013-06-19 06:03:00,68.4,65.6,29.88,NW,323,0.0,0.0,91,0.00,,,0.01,WUHU216DAVISVP2,2013-06-19 10:03:00,
2013-06-19 06:08:00,68.3,65.6,29.88,NW,323,0.0,0.0,91,0.00,,,0.01,WUHU216DAVISVP2,2013-06-19 10:08:00,
2013-06-19 06:13:00,68.3,65.6,29.89,NW,323,0.0,0.0,91,0.00,,,0.01,WUHU216DAVISVP2,2013-06-19 10:13:00,
2013-06-19 06:18:00,68.3,65.5,29.89,NW,323,0.0,0.0,91,0.00,,,0.01,WUHU216DAVISVP2,2013-06-19 10:18:00,
2013-06-19 06:23:00,68.3,65.5,29.89,NW,323,0.0,0.0,91,0.00,,,0.01,WUHU216DAVISVP2,2013-06-19 10:23:00,
2013-06-19 06:28:00,68.3,65.5,29.89,NW,323,0.0,0.0,91,0.00,,,0.01,WUHU216DAVISVP2,2013-06-19 10:28:00,
2013-06-19 06:33:00,68.4,65.7,29.89,NW,323,0.0,0.0,91,0.00,,,0.01,WUHU216DAVISVP2,2013-06-19 10:33:00,
2013-06-19 06:38:00,68.6,65.8,29.89,NW,323,0.0,0.0,91,0.00,,,0.01,WUHU216DAVISVP2,2013-06-19 10:38:00,
2013-06-19 06:43:00,68.8,66.0,29.90,NW,323,0.0,0.0,91,0.00,,,0.01,WUHU216DAVISVP2,2013-06-19 10:43:00,
2013-06-19 06:48:00,68.9,66.1,29.90,NW,323,0.0,0.0,91,0.00,,,0.01,WUHU216DAVISVP2,2013-06-19 10:48:00,
2013-06-19 06:53:00,68.9,66.1,29.90,NW,323,0.0,0.0,91,0.00,,,0.01,WUHU216DAVISVP2,2013-06-19 10:53:00,
2013-06-19 06:58:00,68.9,66.1,29.91,NW,323,0.0,0.0,91,0.00,,,0.01,WUHU216DAVISVP2,2013-06-19 10:58:00,
2013-06-19 07:03:00,68.9,66.1,29.91,NW,323,0.0,0.0,91,0.00,,,0.01,WUHU216DAVISVP2,2013-06-19 11:03:00,
2013-06-19 07:08:00,69.1,66.4,29.91,NW,323,0.0,0.0,91,0.00,,,0.01,WUHU216DAVISVP2,2013-06-19 11:08:00,
2013-06-19 07:14:00,69.6,66.8,29.92,NW,323,0.0,0.0,91,0.00,,,0.01,WUHU216DAVISVP2,2013-06-19 11:14:00,
2013-06-19 07:19:00,69.3,66.6,29.92,NW,323,0.0,0.0,91,0.00,,,0.01,WUHU216DAVISVP2,2013-06-19 11:19:00,
2013-06-19 07:24:00,69.9,67.4,29.92,NW,323,0.0,0.0,92,0.00,,,0.01,WUHU216DAVISVP2,2013-06-19 11:24:00,
2013-06-19 07:29:00,70.3,67.8,29.93,NW,323,0.0,0.0,92,0.00,,,0.01,WUHU216DAVISVP2,2013-06-19 11:29:00,
2013-06-19 07:34:00,70.9,68.5,29.93,NW,323,0.0,0.0,92,0.00,,,0.01,WUHU216DAVISVP2,2013-06-19 11:34:00,
2013-06-19 07:39:00,71.1,68.6,29.93,NW,323,0.0,0.0,92,0.00,,,0.01,WUHU216DAVISVP2,2013-06-19 11:39:00,
2013-06-19 07:44:00,71.5,69.1,29.93,NW,323,0.0,0.0,92,0.00,,,0.01,WUHU216DAVISVP2,2013-06-19 11:44:00,
2013-06-19 07:49:00,71.8,69.3,29.93,NW,323,0.0,0.0,92,0.00,,,0.01,WUHU216DAVISVP2,2013-06-19 11:49:00,
2013-06-19 07:54:00,72.0,69.5,29.93,NW,323,0.0,0.0,92,0.00,,,0.01,WUHU216DAVISVP2,2013-06-19 11:54:00,
2013-06-19 07:59:00,72.0,69.5,29.93,NW,323,0.0,0.0,92,0.00,,,0.01,WUHU216DAVISVP2,2013-06-19 11:59:00,
2013-06-19 08:04:00,72.0,69.2,29.93,NW,323,0.0,0.0,91,0.00,,,0.01,WUHU216DAVISVP2,2013-06-19 12:04:00,
2013-06-19 08:09:00,72.0,69.5,29.93,NW,323,0.0,0.0,92,0.00,,,0.01,WUHU216DAVISVP2,2013-06-19 12:09:00,
2013-06-19 08:14:00,71.5,68.7,29.94,NE,35,0.0,1.0,91,0.00,,,0.01,WUHU216DAVISVP2,2013-06-19 12:14:00,
2013-06-19 08:19:00,71.3,68.8,29.94,North,0,0.0,2.0,92,0.00,,,0.01,WUHU216DAVISVP2,2013-06-19 12:19:00,
2013-06-19 08:24:00,71.1,68.3,29.94,NE,34,0.0,2.0,91,0.00,,,0.01,WUHU216DAVISVP2,2013-06-19 12:24:00,
2013-06-19 08:29:00,70.8,68.0,29.94,NNE,31,0.0,0.0,91,0.00,,,0.01,WUHU216DAVISVP2,2013-06-19 12:29:00,
2013-06-19 08:34:00,70.8,68.0,29.94,NNE,24,0.0,0.0,91,0.00,,,0.01,WUHU216DAVISVP2,2013-06-19 12:34:00,
2013-06-19 08:39:00,70.4,67.6,29.94,NNE,25,0.0,0.0,91,0.00,,,0.01,WUHU216DAVISVP2,2013-06-19 12:39:00,
2013-06-19 08:44:00,70.3,67.5,29.95,ESE,117,1.0,4.0,91,0.00,,,0.01,WUHU216DAVISVP2,2013-06-19 12:44:00,
2013-06-19 08:49:00,70.4,67.6,29.95,NNW,339,0.0,4.0,91,0.00,,,0.01,WUHU216DAVISVP2,2013-06-19 12:49:00,
2013-06-19 08:54:00,70.8,68.0,29.95,NNW,333,0.0,4.0,91,0.00,,,0.01,WUHU216DAVISVP2,2013-06-19 12:54:00,
2013-06-19 08:59:00,71.1,68.3,29.95,North,6,0.0,4.0,91,0.00,,,0.01,WUHU216DAVISVP2,2013-06-19 12:59:00,
2013-06-19 09:04:00,71.3,68.5,29.95,NNW,342,0.0,4.0,91,0.00,,,0.01,WUHU216DAVISVP2,2013-06-19 13:04:00,
2013-06-19 09:09:00,71.3,68.2,29.95,NNW,342,0.0,4.0,90,0.00,,,0.01,WUHU216DAVISVP2,2013-06-19 13:09:00,
2013-06-19 09:14:00,71.3,68.2,29.96,NNW,347,0.0,0.0,90,0.00,,,0.01,WUHU216DAVISVP2,2013-06-19 13:14:00,
2013-06-19 09:19:00,71.8,68.7,29.96,NNW,344,0.0,4.0,90,0.00,,,0.01,WUHU216DAVISVP2,2013-06-19 13:19:00,
2013-06-19 09:24:00,72.0,68.6,29.96,NW,308,0.0,4.0,89,0.00,,,0.01,WUHU216DAVISVP2,2013-06-19 13:24:00,
2013-06-19 09:29:00,72.1,68.7,29.96,NW,308,0.0,2.0,89,0.00,,,0.01,WUHU216DAVISVP2,2013-06-19 13:29:00,
2013-06-19 09:34:00,72.0,68.6,29.96,NNW,330,0.0,1.0,89,0.00,,,0.01,WUHU216DAVISVP2,2013-06-19 13:34:00,
2013-06-19 09:39:00,72.1,68.7,29.96,NNW,332,0.0,1.0,89,0.00,,,0.01,WUHU216DAVISVP2,2013-06-19 13:39:00,
2013-06-19 09:44:00,72.8,69.0,29.96,ENE,75,0.0,1.0,88,0.00,,,0.01,WUHU216DAVISVP2,2013-06-19 13:44:00,
2013-06-19 09:49:00,73.0,68.9,29.96,ENE,72,0.0,1.0,87,0.00,,,0.01,WUHU216DAVISVP2,2013-06-19 13:49:00,
2013-06-19 09:54:00,73.0,68.2,29.96,East,88,0.0,1.0,85,0.00,,,0.01,WUHU216DAVISVP2,2013-06-19 13:54:00,
2013-06-19 09:59:00,73.7,68.9,29.96,East,83,1.0,2.0,85,0.00,,,0.01,WUHU216DAVISVP2,2013-06-19 13:59:00,
2013-06-19 10:04:00,73.9,69.1,29.96,NNW,347,0.0,4.0,85,0.00,,,0.01,WUHU216DAVISVP2,2013-06-19 14:04:00,
2013-06-19 10:09:00,73.9,68.4,29.96,NE,38,0.0,4.0,83,0.00,,,0.01,WUHU216DAVISVP2,2013-06-19 14:09:00,
2013-06-19 10:14:00,74.2,68.4,29.97,North,0,0.0,4.0,82,0.00,,,0.01,WUHU216DAVISVP2,2013-06-19 14:14:00,
2013-06-19 10:19:00,74.4,68.2,29.97,ESE,106,1.0,2.0,81,0.00,,,0.01,WUHU216DAVISVP2,2013-06-19 14:19:00,
2013-06-19 10:24:00,74.2,68.1,29.97,ENE,72,2.0,2.0,81,0.00,,,0.01,WUHU216DAVISVP2,2013-06-19 14:24:00,
2013-06-19 10:29:00,74.7,68.9,29.97,ENE,72,0.0,2.0,82,0.00,,,0.01,WUHU216DAVISVP2,2013-06-19 14:29:00,
2013-06-19 10:35:00,74.9,68.3,29.97,ENE,76,0.0,2.0,80,0.00,,,0.01,WUHU216DAVISVP2,2013-06-19 14:35:00,
2013-06-19 10:40:00,74.9,68.4,29.97,North,3,0.0,6.0,80,0.00,,,0.01,WUHU216DAVISVP2,2013-06-19 14:40:00,
2013-06-19 10:45:00,75.1,68.6,29.97,NE,44,0.0,6.0,80,0.00,,,0.01,WUHU216DAVISVP2,2013-06-19 14:45:00,
2013-06-19 10:50:00,75.3,68.7,29.97,NNW,336,0.0,2.0,80,0.00,,,0.01,WUHU216DAVISVP2,2013-06-19 14:50:00,
2013-06-19 10:55:00,75.3,68.0,29.97,East,90,0.0,2.0,78,0.00,,,0.01,WUHU216DAVISVP2,2013-06-19 14:55:00,
2013-06-19 11:00:00,75.4,68.5,29.98,East,90,0.0,2.0,79,0.00,,,0.01,WUHU216DAVISVP2,2013-06-19 15:00:00,
2013-06-19 11:05:00,76.0,68.6,29.98,East,85,0.0,0.0,78,0.00,,,0.01,WUHU216DAVISVP2,2013-06-19 15:05:00,
2013-06-19 11:10:00,76.1,68.5,29.98,East,85,0.0,0.0,77,0.00,,,0.01,WUHU216DAVISVP2,2013-06-19 15:10:00,
2013-06-19 11:15:00,76.5,69.3,29.98,North,353,2.0,2.0,78,0.00,,,0.01,WUHU216DAVISVP2,2013-06-19 15:15:00,
2013-06-19 11:20:00,76.7,69.1,29.98,North,350,0.0,2.0,77,0.00,,,0.01,WUHU216DAVISVP2,2013-06-19 15:20:00,
2013-06-19 11:25:00,76.5,67.6,29.98,ESE,103,0.0,6.0,74,0.00,,,0.01,WUHU216DAVISVP2,2013-06-19 15:25:00,
2013-06-19 11:30:00,76.1,67.6,29.98,ESE,103,0.0,6.0,75,0.00,,,0.01,WUHU216DAVISVP2,2013-06-19 15:30:00,
2013-06-19 11:35:00,76.5,68.4,29.98,NNW,332,0.0,4.0,76,0.00,,,0.01,WUHU216DAVISVP2,2013-06-19 15:35:00,
2013-06-19 11:40:00,76.7,68.3,29.98,NE,51,0.0,4.0,75,0.00,,,0.01,WUHU216DAVISVP2,2013-06-19 15:40:00,
2013-06-19 11:45:00,76.5,68.1,29.98,NE,51,0.0,2.0,75,0.00,,,0.01,WUHU216DAVISVP2,2013-06-19 15:45:00,
2013-06-19 11:51:00,76.3,67.6,29.98,East,93,0.0,0.0,74,0.00,,,0.01,WUHU216DAVISVP2,2013-06-19 15:51:00,
2013-06-19 11:56:00,76.3,67.8,29.98,East,90,0.0,0.0,75,0.00,,,0.01,WUHU216DAVISVP2,2013-06-19 15:56:00,
2013-06-19 12:01:00,76.3,68.0,29.99,East,85,0.0,0.0,75,0.00,,,0.01,WUHU216DAVISVP2,2013-06-19 16:01:00,
2013-06-19 12:06:00,76.7,68.3,29.99,East,85,0.0,0.0,75,0.00,,,0.01,WUHU216DAVISVP2,2013-06-19 16:06:00,
2013-06-19 12:11:00,77.2,68.8,29.99,NE,34,0.0,0.0,75,0.00,,,0.01,WUHU216DAVISVP2,2013-06-19 16:11:00,
2013-06-19 12:16:00,77.2,68.4,29.99,NE,47,0.0,4.0,74,0.00,,,0.01,WUHU216DAVISVP2,2013-06-19 16:16:00,
2013-06-19 12:21:00,77.6,69.0,29.99,NW,315,1.0,4.0,75,0.00,,,0.01,WUHU216DAVISVP2,2013-06-19 16:21:00,
2013-06-19 12:26:00,77.7,68.9,29.99,NNW,346,0.0,4.0,74,0.00,,,0.01,WUHU216DAVISVP2,2013-06-19 16:26:00,
2013-06-19 12:31:00,78.1,69.1,29.99,NE,55,0.0,2.0,74,0.00,,,0.01,WUHU216DAVISVP2,2013-06-19 16:31:00,
2013-06-19 12:37:00,78.1,68.1,29.99,NE,54,0.0,1.0,71,0.00,,,0.01,WUHU216DAVISVP2,2013-06-19 16:37:00,
2013-06-19 12:42:00,78.3,68.7,29.99,North,6,4.0,4.0,72,0.00,,,0.01,WUHU216DAVISVP2,2013-06-19 16:42:00,
2013-06-19 12:47:00,78.1,67.9,29.99,East,97,1.0,6.0,71,0.00,,,0.01,WUHU216DAVISVP2,2013-06-19 16:47:00,
2013-06-19 12:52:00,77.7,68.5,29.99,East,97,0.0,6.0,73,0.00,,,0.01,WUHU216DAVISVP2,2013-06-19 16:52:00,
2013-06-19 12:57:00,77.7,67.5,29.99,East,97,0.0,1.0,71,0.00,,,0.01,WUHU216DAVISVP2,2013-06-19 16:57:00,
2013-06-19 13:02:00,77.6,68.1,29.99,East,92,0.0,1.0,72,0.00,,,0.01,WUHU216DAVISVP2,2013-06-19 17:02:00,
2013-06-19 13:07:00,77.6,67.7,29.99,East,92,0.0,1.0,71,0.00,,,0.01,WUHU216DAVISVP2,2013-06-19 17:07:00,
2013-06-19 13:12:00,78.1,68.9,29.99,East,83,4.0,4.0,73,0.00,,,0.01,WUHU216DAVISVP2,2013-06-19 17:12:00,
2013-06-19 13:16:00,77.9,67.5,30.00,East,79,0.0,7.0,70,0.00,,,0.01,WUHU216DAVISVP2,2013-06-19 17:16:00,
2013-06-19 13:21:00,77.9,67.9,30.00,NNE,13,0.0,7.0,71,0.00,,,0.01,WUHU216DAVISVP2,2013-06-19 17:21:00,
2013-06-19 13:27:00,77.9,67.9,30.00,SSE,167,0.0,4.0,71,0.00,,,0.01,WUHU216DAVISVP2,2013-06-19 17:27:00,
2013-06-19 13:32:00,78.5,68.7,30.00,East,80,0.0,1.0,72,0.00,,,0.01,WUHU216DAVISVP2,2013-06-19 17:32:00,
2013-06-19 13:36:00,79.0,68.6,30.00,ESE,109,0.0,2.0,70,0.00,,,0.01,WUHU216DAVISVP2,2013-06-19 17:36:00,
2013-06-19 13:41:00,79.0,67.3,30.00,ESE,116,0.0,6.0,67,0.00,,,0.01,WUHU216DAVISVP2,2013-06-19 17:41:00,
2013-06-19 13:47:00,79.4,68.8,30.00,North,0,0.0,6.0,70,0.00,,,0.01,WUHU216DAVISVP2,2013-06-19 17:47:00,
2013-06-19 13:52:00,79.8,67.9,30.00,ESE,104,0.0,1.0,67,0.00,,,0.01,WUHU216DAVISVP2,2013-06-19 17:52:00,
2013-06-19 13:57:00,79.0,67.3,30.00,NE,54,0.0,2.0,67,0.00,,,0.01,WUHU216DAVISVP2,2013-06-19 17:57:00,
2013-06-19 14:02:00,79.2,67.7,30.00,NNW,336,2.0,6.0,68,0.00,,,0.01,WUHU216DAVISVP2,2013-06-19 18:02:00,
2013-06-19 14:08:00,79.6,68.8,30.00,NNW,339,0.0,6.0,69,0.00,,,0.01,WUHU216DAVISVP2,2013-06-19 18:08:00,
2013-06-19 14:13:00,79.2,68.0,30.00,NNE,16,0.0,4.0,68,0.00,,,0.01,WUHU216DAVISVP2,2013-06-19 18:13:00,
2013-06-19 14:18:00,78.6,67.4,30.00,North,8,0.0,2.0,68,0.00,,,0.01,WUHU216DAVISVP2,2013-06-19 18:18:00,
2013-06-19 14:23:00,78.5,67.3,30.00,ENE,65,0.0,2.0,68,0.00,,,0.01,WUHU216DAVISVP2,2013-06-19 18:23:00,
2013-06-19 14:28:00,78.5,67.5,30.00,East,93,0.0,2.0,69,0.00,,,0.01,WUHU216DAVISVP2,2013-06-19 18:28:00,
2013-06-19 14:33:00,78.5,68.1,30.00,NNW,336,0.0,1.0,70,0.00,,,0.01,WUHU216DAVISVP2,2013-06-19 18:33:00,
2013-06-19 14:38:00,78.6,67.6,30.00,NW,326,0.0,2.0,69,0.00,,,0.01,WUHU216DAVISVP2,2013-06-19 18:38:00,
2013-06-19 14:43:00,78.8,67.6,30.00,ESE,103,0.0,4.0,68,0.00,,,0.01,WUHU216DAVISVP2,2013-06-19 18:43:00,
2013-06-19 14:48:00,78.6,68.2,30.00,NNE,14,0.0,4.0,70,0.00,,,0.01,WUHU216DAVISVP2,2013-06-19 18:48:00,
2013-06-19 14:53:00,78.6,67.0,30.00,ESE,107,0.0,2.0,67,0.00,,,0.01,WUHU216DAVISVP2,2013-06-19 18:53:00,
2013-06-19 14:58:00,78.6,67.6,30.00,WNW,289,0.0,2.0,69,0.00,,,0.01,WUHU216DAVISVP2,2013-06-19 18:58:00,
2013-06-19 15:03:00,78.3,66.7,30.00,East,82,0.0,4.0,67,0.00,,,0.01,WUHU216DAVISVP2,2013-06-19 19:03:00,
2013-06-19 15:08:00,78.5,67.1,30.00,East,82,0.0,4.0,68,0.00,,,0.01,WUHU216DAVISVP2,2013-06-19 19:08:00,
2013-06-19 15:13:00,78.5,68.1,30.00,East,82,0.0,1.0,70,0.00,,,0.01,WUHU216DAVISVP2,2013-06-19 19:13:00,
2013-06-19 15:18:00,78.8,68.8,30.00,ENE,72,1.0,1.0,71,0.00,,,0.01,WUHU216DAVISVP2,2013-06-19 19:18:00,
2013-06-19 15:23:00,78.8,68.6,30.00,NW,318,4.0,4.0,71,0.00,,,0.01,WUHU216DAVISVP2,2013-06-19 19:23:00,
2013-06-19 15:28:00,79.4,68.6,30.00,SE,141,2.0,4.0,69,0.00,,,0.01,WUHU216DAVISVP2,2013-06-19 19:28:00,
2013-06-19 15:33:00,79.6,68.5,30.00,NE,41,0.0,4.0,69,0.00,,,0.01,WUHU216DAVISVP2,2013-06-19 19:33:00,
2013-06-19 15:38:00,79.2,68.4,30.00,ENE,76,0.0,2.0,69,0.00,,,0.01,WUHU216DAVISVP2,2013-06-19 19:38:00,
2013-06-19 15:43:00,78.5,67.3,30.00,ESE,107,0.0,6.0,68,0.00,,,0.01,WUHU216DAVISVP2,2013-06-19 19:43:00,
2013-06-19 15:48:00,78.3,66.9,30.00,NE,55,0.0,6.0,68,0.00,,,0.01,WUHU216DAVISVP2,2013-06-19 19:48:00,
2013-06-19 15:53:00,78.1,67.5,30.00,NE,56,0.0,1.0,70,0.00,,,0.01,WUHU216DAVISVP2,2013-06-19 19:53:00,
2013-06-19 15:58:00,78.1,68.5,30.00,ENE,62,0.0,1.0,72,0.00,,,0.01,WUHU216DAVISVP2,2013-06-19 19:58:00,
2013-06-19 16:03:00,78.3,67.7,30.00,ENE,62,0.0,1.0,70,0.00,,,0.01,WUHU216DAVISVP2,2013-06-19 20:03:00,
2013-06-19 16:08:00,78.5,68.1,30.00,ENE,64,0.0,0.0,70,0.00,,,0.01,WUHU216DAVISVP2,2013-06-19 20:08:00,
2013-06-19 16:13:00,78.6,68.0,30.00,ENE,64,4.0,4.0,70,0.00,,,0.01,WUHU216DAVISVP2,2013-06-19 20:13:00,
2013-06-19 16:18:00,78.1,66.9,30.00,East,82,0.0,4.0,68,0.00,,,0.01,WUHU216DAVISVP2,2013-06-19 20:18:00,
2013-06-19 16:23:00,78.1,66.9,30.00,East,82,0.0,0.0,68,0.00,,,0.01,WUHU216DAVISVP2,2013-06-19 20:23:00,
2013-06-19 16:28:00,78.1,66.7,30.00,ESE,106,0.0,1.0,68,0.00,,,0.01,WUHU216DAVISVP2,2013-06-19 20:28:00,
2013-06-19 16:33:00,78.1,67.7,30.00,East,82,0.0,4.0,70,0.00,,,0.01,WUHU216DAVISVP2,2013-06-19 20:33:00,
2013-06-19 16:38:00,77.9,67.5,30.00,East,82,0.0,4.0,70,0.00,,,0.01,WUHU216DAVISVP2,2013-06-19 20:38:00,
2013-06-19 16:43:00,78.1,67.7,29.99,East,82,0.0,1.0,70,0.00,,,0.01,WUHU216DAVISVP2,2013-06-19 20:43:00,
2013-06-19 16:48:00,78.1,67.5,29.99,ESE,117,0.0,2.0,70,0.00,,,0.01,WUHU216DAVISVP2,2013-06-19 20:48:00,
2013-06-19 16:54:00,78.1,67.7,29.99,North,0,0.0,2.0,70,0.00,,,0.01,WUHU216DAVISVP2,2013-06-19 20:54:00,
2013-06-19 16:59:00,77.9,67.3,30.00,North,0,0.0,0.0,70,0.00,,,0.01,WUHU216DAVISVP2,2013-06-19 20:59:00,
2013-06-19 17:04:00,77.6,67.3,30.00,ESE,119,0.0,2.0,70,0.00,,,0.01,WUHU216DAVISVP2,2013-06-19 21:04:00,
2013-06-19 17:09:00,77.4,67.1,30.00,East,89,0.0,2.0,70,0.00,,,0.01,WUHU216DAVISVP2,2013-06-19 21:09:00,
2013-06-19 17:15:00,77.2,66.9,30.00,ENE,78,0.0,0.0,70,0.00,,,0.01,WUHU216DAVISVP2,2013-06-19 21:15:00,
2013-06-19 17:20:00,77.2,66.9,30.00,ENE,69,0.0,0.0,70,0.00,,,0.01,WUHU216DAVISVP2,2013-06-19 21:20:00,
2013-06-19 17:25:00,77.2,66.7,30.00,SSE,161,0.0,0.0,70,0.00,,,0.01,WUHU216DAVISVP2,2013-06-19 21:25:00,
2013-06-19 17:30:00,77.9,67.5,30.00,SSE,164,0.0,0.0,70,0.00,,,0.01,WUHU216DAVISVP2,2013-06-19 21:30:00,
2013-06-19 17:35:00,77.7,67.3,30.00,SE,127,0.0,4.0,70,0.00,,,0.01,WUHU216DAVISVP2,2013-06-19 21:35:00,
2013-06-19 17:40:00,77.6,67.3,30.00,SE,127,0.0,4.0,70,0.00,,,0.01,WUHU216DAVISVP2,2013-06-19 21:40:00,
2013-06-19 17:45:00,77.6,67.3,30.00,ESE,121,0.0,0.0,70,0.00,,,0.01,WUHU216DAVISVP2,2013-06-19 21:45:00,
2013-06-19 17:50:00,77.7,67.3,30.00,ESE,121,0.0,0.0,70,0.00,,,0.01,WUHU216DAVISVP2,2013-06-19 21:50:00,
2013-06-19 17:57:00,77.9,67.5,30.00,ENE,68,0.0,0.0,70,0.00,,,0.01,WUHU216DAVISVP2,2013-06-19 21:57:00,
2013-06-19 18:02:00,77.7,67.8,30.00,ENE,68,0.0,0.0,71,0.00,,,0.01,WUHU216DAVISVP2,2013-06-19 22:02:00,
2013-06-19 18:07:00,77.4,67.1,30.00,ENE,75,0.0,4.0,70,0.00,,,0.01,WUHU216DAVISVP2,2013-06-19 22:07:00,
2013-06-19 18:12:00,77.4,67.1,30.00,ENE,75,0.0,4.0,70,0.00,,,0.01,WUHU216DAVISVP2,2013-06-19 22:12:00,
2013-06-19 18:17:00,77.4,67.1,30.00,ENE,75,0.0,0.0,70,0.00,,,0.01,WUHU216DAVISVP2,2013-06-19 22:17:00,
2013-06-19 18:22:00,77.4,67.1,30.00,ENE,72,0.0,0.0,70,0.00,,,0.01,WUHU216DAVISVP2,2013-06-19 22:22:00,
2013-06-19 18:27:00,77.0,67.1,30.00,ENE,72,0.0,0.0,71,0.00,,,0.01,WUHU216DAVISVP2,2013-06-19 22:27:00,
2013-06-19 18:32:00,76.8,66.9,30.01,ENE,72,0.0,0.0,71,0.00,,,0.01,WUHU216DAVISVP2,2013-06-19 22:32:00,
2013-06-19 18:37:00,76.8,67.7,30.01,ENE,72,0.0,0.0,73,0.00,,,0.01,WUHU216DAVISVP2,2013-06-19 22:37:00,
2013-06-19 18:42:00,76.7,67.2,30.01,ENE,72,0.0,0.0,72,0.00,,,0.01,WUHU216DAVISVP2,2013-06-19 22:42:00,
2013-06-19 18:47:00,76.5,67.4,30.01,ENE,72,0.0,0.0,73,0.00,,,0.01,WUHU216DAVISVP2,2013-06-19 22:47:00,
2013-06-19 18:52:00,76.3,67.2,30.01,East,96,0.0,0.0,73,0.00,,,0.01,WUHU216DAVISVP2,2013-06-19 22:52:00,
2013-06-19 18:57:00,76.1,67.0,30.01,East,96,0.0,0.0,73,0.00,,,0.01,WUHU216DAVISVP2,2013-06-19 22:57:00,
2013-06-19 19:02:00,76.0,67.3,30.02,East,96,0.0,0.0,74,0.00,,,0.01,WUHU216DAVISVP2,2013-06-19 23:02:00,
2013-06-19 19:07:00,76.0,67.3,30.02,East,96,0.0,0.0,74,0.00,,,0.01,WUHU216DAVISVP2,2013-06-19 23:07:00,
2013-06-19 19:12:00,76.0,67.3,30.02,East,96,0.0,0.0,74,0.00,,,0.01,WUHU216DAVISVP2,2013-06-19 23:12:00,
2013-06-19 19:17:00,76.1,67.4,30.02,East,96,0.0,0.0,74,0.00,,,0.01,WUHU216DAVISVP2,2013-06-19 23:17:00,
2013-06-19 19:22:00,76.1,67.8,30.02,East,96,0.0,0.0,75,0.00,,,0.01,WUHU216DAVISVP2,2013-06-19 23:22:00,
2013-06-19 19:27:00,76.0,67.7,30.02,East,96,0.0,0.0,75,0.00,,,0.01,WUHU216DAVISVP2,2013-06-19 23:27:00,
2013-06-19 19:32:00,75.8,67.1,30.02,East,96,0.0,0.0,74,0.00,,,0.01,WUHU216DAVISVP2,2013-06-19 23:32:00,
2013-06-19 19:37:00,75.8,67.1,30.02,East,96,0.0,0.0,74,0.00,,,0.01,WUHU216DAVISVP2,2013-06-19 23:37:00,
2013-06-19 19:42:00,75.6,67.3,30.02,East,96,0.0,0.0,75,0.00,,,0.01,WUHU216DAVISVP2,2013-06-19 23:42:00,
2013-06-19 19:47:00,75.6,67.3,30.02,East,96,0.0,0.0,75,0.00,,,0.01,WUHU216DAVISVP2,2013-06-19 23:47:00,
2013-06-19 19:52:00,75.3,66.8,30.02,East,96,0.0,0.0,75,0.00,,,0.01,WUHU216DAVISVP2,2013-06-19 23:52:00,
2013-06-19 19:57:00,75.1,67.2,30.02,ENE,75,0.0,0.0,76,0.00,,,0.01,WUHU216DAVISVP2,2013-06-19 23:57:00,
2013-06-19 20:02:00,75.1,67.0,30.03,ENE,76,0.0,0.0,76,0.00,,,0.01,WUHU216DAVISVP2,2013-06-20 00:02:00,
2013-06-19 20:07:00,74.7,66.8,30.03,ENE,75,0.0,0.0,76,0.00,,,0.01,WUHU216DAVISVP2,2013-06-20 00:07:00,
2013-06-19 20:12:00,74.6,66.5,30.03,ENE,75,0.0,0.0,76,0.00,,,0.01,WUHU216DAVISVP2,2013-06-20 00:12:00,
2013-06-19 20:17:00,74.6,67.0,30.03,ENE,75,0.0,0.0,77,0.00,,,0.01,WUHU216DAVISVP2,2013-06-20 00:17:00,
2013-06-19 20:22:00,74.2,66.7,30.03,East,99,0.0,0.0,77,0.00,,,0.01,WUHU216DAVISVP2,2013-06-20 00:22:00,
2013-06-19 20:27:00,73.9,66.4,30.03,WNW,294,0.0,0.0,77,0.00,,,0.01,WUHU216DAVISVP2,2013-06-20 00:27:00,
2013-06-19 20:32:00,73.7,66.2,30.03,WNW,294,0.0,0.0,77,0.00,,,0.01,WUHU216DAVISVP2,2013-06-20 00:32:00,
2013-06-19 20:37:00,73.7,66.0,30.03,WNW,294,0.0,0.0,77,0.00,,,0.01,WUHU216DAVISVP2,2013-06-20 00:37:00,
2013-06-19 20:42:00,73.3,66.1,30.03,WNW,294,0.0,0.0,78,0.00,,,0.01,WUHU216DAVISVP2,2013-06-20 00:42:00,
2013-06-19 20:47:00,73.2,66.0,30.04,WNW,294,0.0,0.0,78,0.00,,,0.01,WUHU216DAVISVP2,2013-06-20 00:47:00,
2013-06-19 20:52:00,73.0,66.2,30.04,WNW,294,0.0,0.0,79,0.00,,,0.01,WUHU216DAVISVP2,2013-06-20 00:52:00,
2013-06-19 20:57:00,72.7,65.9,30.04,WNW,294,0.0,0.0,79,0.00,,,0.01,WUHU216DAVISVP2,2013-06-20 00:57:00,
2013-06-19 21:02:00,72.7,65.9,30.04,WNW,294,0.0,0.0,79,0.00,,,0.01,WUHU216DAVISVP2,2013-06-20 01:02:00,
2013-06-19 21:07:00,72.5,65.7,30.04,WNW,294,0.0,0.0,79,0.00,,,0.01,WUHU216DAVISVP2,2013-06-20 01:07:00,
2013-06-19 21:12:00,72.3,65.9,30.04,WNW,294,0.0,0.0,80,0.00,,,0.01,WUHU216DAVISVP2,2013-06-20 01:12:00,
2013-06-19 21:17:00,72.3,65.9,30.04,WNW,294,0.0,0.0,80,0.00,,,0.01,WUHU216DAVISVP2,2013-06-20 01:17:00,
2013-06-19 21:22:00,72.0,65.6,30.04,WNW,294,0.0,0.0,80,0.00,,,0.01,WUHU216DAVISVP2,2013-06-20 01:22:00,
2013-06-19 21:27:00,71.8,65.4,30.04,WNW,294,0.0,0.0,80,0.00,,,0.01,WUHU216DAVISVP2,2013-06-20 01:27:00,
2013-06-19 21:32:00,71.6,65.2,30.05,WNW,294,0.0,0.0,80,0.00,,,0.01,WUHU216DAVISVP2,2013-06-20 01:32:00,
2013-06-19 21:37:00,71.6,65.5,30.05,WNW,294,0.0,0.0,81,0.00,,,0.01,WUHU216DAVISVP2,2013-06-20 01:37:00,
2013-06-19 21:42:00,71.5,65.4,30.05,WNW,294,0.0,0.0,81,0.00,,,0.01,WUHU216DAVISVP2,2013-06-20 01:42:00,
2013-06-19 21:47:00,71.3,65.6,30.06,WNW,294,0.0,0.0,82,0.00,,,0.01,WUHU216DAVISVP2,2013-06-20 01:47:00,
2013-06-19 21:52:00,71.3,65.6,30.06,WNW,294,0.0,0.0,82,0.00,,,0.01,WUHU216DAVISVP2,2013-06-20 01:52:00,
2013-06-19 21:57:00,71.1,65.4,30.06,WNW,294,0.0,0.0,82,0.00,,,0.01,WUHU216DAVISVP2,2013-06-20 01:57:00,
2013-06-19 22:02:00,71.1,65.7,30.07,WNW,294,0.0,0.0,83,0.00,,,0.01,WUHU216DAVISVP2,2013-06-20 02:02:00,
2013-06-19 22:07:00,71.1,65.7,30.07,WNW,294,0.0,0.0,83,0.00,,,0.01,WUHU216DAVISVP2,2013-06-20 02:07:00,
2013-06-19 22:12:00,70.9,65.5,30.07,WNW,294,0.0,0.0,83,0.00,,,0.01,WUHU216DAVISVP2,2013-06-20 02:12:00,
2013-06-19 22:17:00,70.9,65.5,30.07,WNW,294,0.0,0.0,83,0.00,,,0.01,WUHU216DAVISVP2,2013-06-20 02:17:00,
2013-06-19 22:22:00,70.9,65.5,30.07,WNW,294,0.0,0.0,83,0.00,,,0.01,WUHU216DAVISVP2,2013-06-20 02:22:00,
2013-06-19 22:27:00,70.9,65.5,30.07,WNW,294,0.0,0.0,83,0.00,,,0.01,WUHU216DAVISVP2,2013-06-20 02:27:00,
2013-06-19 22:32:00,70.8,65.4,30.08,WNW,294,0.0,0.0,83,0.00,,,0.01,WUHU216DAVISVP2,2013-06-20 02:32:00,
2013-06-19 22:37:00,70.8,65.4,30.08,WNW,294,0.0,0.0,83,0.00,,,0.01,WUHU216DAVISVP2,2013-06-20 02:37:00,
2013-06-19 22:42:00,70.9,65.9,30.08,WNW,294,0.0,0.0,84,0.00,,,0.01,WUHU216DAVISVP2,2013-06-20 02:42:00,
2013-06-19 22:47:00,70.9,65.9,30.08,WNW,294,0.0,0.0,84,0.00,,,0.01,WUHU216DAVISVP2,2013-06-20 02:47:00,
2013-06-19 22:52:00,70.9,65.9,30.08,WNW,294,0.0,0.0,84,0.00,,,0.01,WUHU216DAVISVP2,2013-06-20 02:52:00,
2013-06-19 22:57:00,70.9,65.9,30.08,WNW,294,0.0,0.0,84,0.00,,,0.01,WUHU216DAVISVP2,2013-06-20 02:57:00,
2013-06-19 23:02:00,71.1,66.1,30.08,WNW,294,0.0,0.0,84,0.00,,,0.01,WUHU216DAVISVP2,2013-06-20 03:02:00,
2013-06-19 23:07:00,71.1,66.1,30.08,WNW,294,0.0,0.0,84,0.00,,,0.01,WUHU216DAVISVP2,2013-06-20 03:07:00,
2013-06-19 23:12:00,71.1,66.1,30.08,WNW,294,0.0,0.0,84,0.00,,,0.01,WUHU216DAVISVP2,2013-06-20 03:12:00,
2013-06-19 23:17:00,71.1,66.4,30.08,WNW,294,0.0,0.0,85,0.00,,,0.01,WUHU216DAVISVP2,2013-06-20 03:17:00,
2013-06-19 23:22:00,70.9,66.2,30.08,WNW,294,0.0,0.0,85,0.00,,,0.01,WUHU216DAVISVP2,2013-06-20 03:22:00,
2013-06-19 23:27:00,70.9,66.2,30.08,WNW,294,0.0,0.0,85,0.00,,,0.01,WUHU216DAVISVP2,2013-06-20 03:27:00,
2013-06-19 23:32:00,70.8,66.1,30.08,WNW,294,0.0,0.0,85,0.00,,,0.01,WUHU216DAVISVP2,2013-06-20 03:32:00,
2013-06-19 23:38:00,70.8,66.1,30.08,WNW,294,0.0,0.0,85,0.00,,,0.01,WUHU216DAVISVP2,2013-06-20 03:38:00,
2013-06-19 23:43:00,70.4,65.7,30.08,WNW,294,0.0,0.0,85,0.00,,,0.01,WUHU216DAVISVP2,2013-06-20 03:43:00,
2013-06-19 23:48:00,70.4,65.7,30.08,WNW,294,0.0,0.0,85,0.00,,,0.01,WUHU216DAVISVP2,2013-06-20 03:48:00,
2013-06-19 23:53:00,70.4,65.7,30.08,WNW,294,0.0,0.0,85,0.00,,,0.01,WUHU216DAVISVP2,2013-06-20 03:53:00,
2013-06-19 23:58:00,70.1,65.4,30.08,WNW,294,0.0,0.0,85,0.00,,,0.01,WUHU216DAVISVP2,2013-06-20 03:58:00,